This is the latest recevied weather packets stored in our database for station/object DB0ADS-6. If no packets are shown the sender has not sent any weather packets the latest 10 day(s).
| Time | Temp. | Humidity | Pressure | Rain* | Wind** | Luminosity | Snow |
|---|---|---|---|---|---|---|---|
| 1777790152 | 15° C | 48% | 1013.8 hPa | 0 mm | - | - | - |
| 1777789851 | 14.44° C | 50% | 1013.7 hPa | 0 mm | - | - | - |
| 1777789549 | 14.44° C | 49% | 1013.7 hPa | 0 mm | - | - | - |
| 1777789250 | 14.44° C | 49% | 1013.6 hPa | 0 mm | - | - | - |
| 1777788945 | 15° C | 48% | 1013.6 hPa | 0 mm | - | - | - |
| 1777788644 | 15° C | 49% | 1013.6 hPa | 0 mm | - | - | - |
| 1777788342 | 15° C | 51% | 1013.7 hPa | 0 mm | - | - | - |
| 1777788040 | 15° C | 50% | 1013.7 hPa | 0 mm | - | - | - |
| 1777787740 | 13.89° C | 49% | 1013.7 hPa | 0 mm | - | - | - |
| 1777787437 | 13.89° C | 53% | 1013.7 hPa | 0 mm | - | - | - |
| 1777787136 | 13.89° C | 56% | 1013.8 hPa | 0 mm | - | - | - |
| 1777786833 | 13.89° C | 54% | 1013.8 hPa | 0 mm | - | - | - |
| 1777786532 | 13.89° C | 52% | 1013.7 hPa | 0 mm | - | - | - |
| 1777786230 | 13.33° C | 52% | 1013.7 hPa | 0 mm | - | - | - |
| 1777785929 | 13.33° C | 54% | 1013.8 hPa | 0 mm | - | - | - |
| 1777785627 | 12.78° C | 53% | 1013.7 hPa | 0 mm | - | - | - |
| 1777785325 | 12.78° C | 53% | 1013.7 hPa | 0 mm | - | - | - |
| 1777785023 | 12.22° C | 53% | 1013.8 hPa | 0 mm | - | - | - |
| 1777784741 | 12.22° C | 54% | 1013.8 hPa | 0 mm | - | - | - |
| 1777784420 | 12.22° C | 55% | 1013.8 hPa | 0 mm | - | - | - |
| 1777784118 | 12.22° C | 54% | 1013.8 hPa | 0 mm | - | - | - |
| 1777783817 | 12.22° C | 54% | 1013.8 hPa | 0 mm | - | - | - |
| 1777783575 | 12.22° C | 54% | 1013.7 hPa | 0 mm | - | - | - |
| 1777783273 | 12.22° C | 54% | 1013.6 hPa | 0 mm | - | - | - |
| 1777782971 | 12.22° C | 54% | 1013.6 hPa | 0 mm | - | - | - |
* Rain latest hour (hover to see other rain measurements)
** Current wind speed in m/s (hover to see current wind gust speed)